Simultaneous Nadir Overpasses (SNOs) Predictions

Prediction of SNOs between AQUA and NPP Satellite Orbit:

Table of predicted SNOs for the next 14.0 days since TLE Epoch: 6/4/2022
Index Date (AQUA) Time (AQUA) Lat,Lon (AQUA) SZA (AQUA ) Date (NPP) Time (NPP) Lat,Lon (NPP) SZA (NPP ) Distance(km) Time Diff (sec)
1 06/04/2022 15:51:44 77.84,-171.36 72.72 06/04/2022 15:51:21 77.83,-171.39 72.74 0.84 23
2 06/04/2022 16:40:55 -78.53, -0.38 108.20 06/04/2022 16:41:49 -78.53, -0.26 108.27 2.87 54
3 06/07/2022 07:18:19 -77.85, 137.07 107.56 06/07/2022 07:17:35 -77.86, 137.17 107.55 2.58 44
4 06/07/2022 08:07:33 78.34, -52.94 71.80 06/07/2022 08:08:07 78.35, -52.91 71.77 0.89 34
5 06/09/2022 22:44:55 77.68, 84.72 72.46 06/09/2022 22:43:51 77.69, 84.79 72.49 1.92 64
6 06/09/2022 23:34:11 -78.17,-105.43 108.18 06/09/2022 23:34:25 -78.17,-105.45 108.19 0.47 14
7 06/12/2022 15:00:46 78.08,-157.47 71.79 06/12/2022 15:00:40 78.08,-157.47 71.79 0.10 6
8 06/12/2022 15:50:03 -78.51, 12.31 108.79 06/12/2022 15:51:15 -78.51, 12.22 108.83 1.94 72
9 06/15/2022 06:27:22 -78.01, 150.57 108.24 06/15/2022 06:26:56 -78.02, 150.64 108.23 1.65 26
10 06/15/2022 07:16:36 78.50, -39.39 71.12 06/15/2022 07:17:28 78.50, -39.40 71.08 0.25 52
11 06/17/2022 21:54:00 77.76, 97.80 72.03 06/17/2022 21:53:15 77.75, 97.75 72.08 1.41 45



Historial Predications of SNOs between AQUA and NPP
